Location: ???????
(60.4260°N, 46.9069°E)
Time: 08:15:39
(UTC+00:00)

Cosmos 1300 Rocket - Pass Details

Date: 30 March 2020
Orbit: 603 x 625 km, 82.5° (Epoch: 29 May)

Event Time Altitude Azimuth Distance (km) Brightness Sun altitude
Rises 01:13:37 0° 345° (NNW) 2,882 7.1 -8.9°
Reaches altitude 10° 01:15:51 10° 346° (NNW) 1,971 6.3 -8.7°
Maximum altitude 01:20:13 84° 74° (ENE) 617 3.6 -8.2°
Drops below altitude 10° 01:24:33 10° 165° (SSE) 1,951 6.1 -7.7°
Sets 01:26:45 0° 166° (SSE) 2,850 6.9 -7.4°
